Wind_Speed
20 20 20 20 21 21 20 19 20 20 20 21 21 21 20 20 20 20 20 19 19 19 20 20 20 20 19 19 19 19 19 19 18 18 18 18 17 17 17 17 17 17 16 16 16 16 15 15 14
20 20 20 21 21 20 19 19 20 21 22 21 22 22 21 21 21 21 21 20 20 20 20 21 21 21 21 21 21 21 21 21 20 20 20 20 19 19 19 19 19 19 19 18 18 18 17 17 17
20 20 21 21 21 20 19 20 20 21 22 22 22 23 23 23 23 23 22 22 23 23 23 22 22 23 23 23 23 23 23 22 22 22 22 21 21 21 21 20 20 20 20 20 20 20 20 20 19
19 20 21 21 20 20 20 20 20 22 22 23 24 24 24 25 25 24 25 24 24 24 25 24 25 25 24 24 24 24 24 24 24 24 24 23 23 23 23 22 23 22 22 22 22 22 22 21 21
20 20 21 21 20 20 21 20 20 21 22 23 24 24 25 25 26 25 25 25 25 25 26 26 27 27 27 27 26 26 26 25 26 26 26 25 25 25 25 24 24 24 24 24 24 23 23 23 22
21 21 21 21 21 21 21 21 21 22 23 23 24 24 24 24 25 26 26 25 26 26 27 27 28 28 28 28 28 28 27 27 27 27 27 27 27 27 26 26 26 25 26 26 26 26 25 25 25
21 21 21 21 21 22 21 21 22 22 23 23 24 24 24 25 25 26 26 26 27 27 28 28 28 29 30 29 30 30 29 29 29 29 29 29 29 29 28 28 27 27 27 28 28 27 27 27 26
21 22 22 22 21 22 22 22 23 23 23 24 25 25 25 26 26 27 27 28 28 29 30 30 30 31 31 31 31 31 31 31 31 31 31 31 31 31 30 30 29 30 30 30 30 29 29 28 28
23 23 23 23 23 23 23 23 24 24 25 26 26 26 26 27 28 28 28 29 30 30 31 31 31 32 32 33 33 32 32 32 32 32 32 32 32 32 32 32 31 32 31 31 31 31 30 30 30
24 24 24 24 24 24 24 25 25 26 27 27 28 27 26 28 29 29 30 30 31 31 32 33 33 34 34 34 33 33 33 33 33 33 32 33 32 33 33 33 33 33 33 32 32 32 32 32 31
24 25 25 25 26 25 26 27 27 28 28 28 29 29 28 29 29 30 30 31 31 32 33 34 34 35 35 35 34 35 35 34 35 34 34 34 33 33 33 33 34 34 33 33 33 34 34 34 33
25 26 26 27 27 27 28 28 29 29 29 30 31 31 31 31 31 31 31 32 32 33 33 34 35 35 36 36 36 35 36 36 35 35 34 34 33 33 34 33 33 34 34 34 35 35 34 35 35
26 26 27 28 28 28 29 28 28 29 30 31 32 32 32 33 33 33 34 34 34 34 34 34 35 36 36 36 36 36 36 36 36 35 35 34 34 34 35 36 35 35 35 35 36 37 36 36 36
27 28 28 29 29 30 30 30 30 30 31 32 33 34 34 34 35 35 35 36 36 36 35 35 35 35 36 37 38 38 38 38 37 37 37 36 36 35 36 36 37 37 37 37 38 38 38 38 37
27 28 29 30 31 31 31 31 31 31 32 33 34 35 35 36 36 37 37 37 37 38 37 37 38 37 37 37 38 39 39 39 39 39 39 38 38 37 37 37 38 38 39 39 39 39 39 40 40
29 29 30 31 32 32 33 32 33 33 34 34 35 36 37 37 37 38 39 39 39 39 39 39 39 39 39 39 39 40 40 39 40 41 41 41 40 40 39 39 39 39 39 39 39 40 40 40 41
29 30 31 31 32 33 34 34 34 35 35 36 36 37 38 38 39 39 40 41 41 41 41 41 41 42 42 41 41 41 41 42 41 41 41 41 41 41 41 41 40 41 41 41 41 40 40 40 41
29 30 31 31 32 33 34 34 35 35 36 37 38 38 39 39 40 40 41 41 41 42 41 42 43 43 43 43 42 43 43 43 43 43 43 43 43 42 42 42 41 42 43 44 43 42 41 41 42
30 30 31 32 33 34 35 35 36 36 37 38 38 39 39 40 41 41 41 41 42 42 42 43 43 43 44 44 44 44 44 44 44 44 45 45 45 44 44 44 44 43 44 44 45 44 44 43 44
30 31 31 33 33 35 35 36 37 38 38 38 39 39 39 40 41 41 41 42 42 43 43 43 43 44 45 45 46 45 45 46 45 45 45 46 46 45 46 46 45 45 45 45 45 44 45 45 45
31 32 32 34 35 36 37 37 37 38 38 39 39 40 40 40 41 41 42 42 43 43 43 44 44 45 45 46 46 46 46 47 47 46 46 46 47 47 48 48 47 47 47 47 47 46 46 46 46
32 32 34 35 36 36 37 38 37 38 38 39 39 40 40 41 41 42 42 43 43 43 44 44 45 45 46 46 46 47 47 48 48 47 47 48 48 48 49 49 49 48 48 48 49 49 48 48 49
32 33 34 35 37 38 38 40 38 38 38 38 39 39 40 40 41 41 42 43 43 43 44 45 45 45 46 47 47 47 48 49 49 49 49 49 49 49 49 49 49 49 50 50 50 51 51 51 50
32 33 34 36 37 39 38 40 39 37 37 38 38 38 39 40 41 41 42 42 43 44 44 45 46 46 47 48 48 48 49 50 50 50 50 50 50 50 50 50 50 50 51 51 52 52 52 53 52
32 33 34 36 37 39 38 40 39 37 37 37 38 38 39 40 41 41 41 42 43 43 44 45 46 47 48 48 49 49 50 50 51 51 52 51 51 50 51 51 51 52 52 52 53 53 54 55 54
33 34 35 37 38 38 38 39 38 38 37 37 38 38 39 39 40 41 41 42 42 43 44 45 46 47 47 48 49 49 50 50 50 50 50 51 51 51 52 52 52 53 52 52 53 53 53 54 54
34 34 35 37 38 39 39 39 38 38 38 38 38 38 39 40 40 40 40 41 42 43 44 44 45 46 47 47 48 49 49 50 50 51 51 51 50 51 51 52 53 53 53 53 53 54 54 54 54
34 34 34 36 38 40 39 38 38 38 39 39 39 38 38 39 39 39 40 41 42 43 43 44 45 46 46 47 48 48 49 49 49 50 50 50 51 51 51 52 53 53 53 53 54 54 55 55 55
33 33 35 36 37 39 40 38 38 39 39 39 39 38 38 38 39 39 39 40 41 42 43 44 44 45 45 46 46 47 48 49 49 50 50 50 50 51 50 51 52 53 54 54 54 54 55 55 55
33 33 34 35 36 37 39 37 37 38 38 39 39 38 38 38 39 39 39 40 40 40 41 42 43 43 44 44 44 45 46 47 47 49 49 50 50 51 51 51 52 53 54 54 54 55 55 55 55
Wind_Direction
243 244 243 242 242 243 244 244 245 244 245 246 248 249 250 250 250 251 252 253 253 253 253 254 255 256 257 258 259 259 259 259 259 258 259 259 260 259 259 259 259 257 258 259 259 260 261 261 261
243 243 243 243 244 245 245 246 247 247 248 248 249 249 249 251 252 254 254 255 256 255 254 255 256 258 258 259 260 261 260 260 259 259 259 258 260 260 260 260 260 259 258 257 257 258 259 259 260
243 243 243 244 245 246 246 245 248 249 248 249 250 251 251 252 252 253 255 256 257 257 256 256 257 258 259 259 259 260 260 261 262 261 261 260 260 261 261 261 261 260 259 257 256 257 257 257 258
243 243 244 245 246 246 246 245 246 248 248 249 251 252 253 253 254 255 257 257 257 258 258 257 257 259 260 260 259 260 260 260 261 261 261 261 261 262 262 261 260 260 260 258 257 257 258 257 257
244 244 245 246 246 247 247 247 248 248 250 251 251 253 254 254 255 257 258 257 258 259 258 258 258 259 260 259 259 259 259 260 260 260 260 260 261 262 263 263 261 260 259 259 258 258 258 258 258
245 247 247 248 249 249 250 251 251 251 252 253 253 254 256 256 257 257 256 256 257 259 258 258 258 259 261 262 261 259 259 259 258 258 259 259 260 260 261 261 260 260 259 258 257 257 257 258 258
244 246 249 250 250 251 252 253 254 254 255 256 257 257 258 258 259 260 259 260 259 259 259 259 259 260 261 262 261 261 261 260 259 259 259 259 259 259 259 260 260 259 259 258 257 257 257 257 257
245 247 249 251 253 254 254 254 255 254 255 257 258 259 259 259 260 262 262 262 263 263 262 261 261 261 261 262 261 261 261 261 261 260 259 258 258 258 259 259 259 258 258 258 257 257 257 257 257
247 248 249 251 254 256 256 256 256 256 256 257 259 260 261 261 261 262 263 264 263 263 263 263 262 263 263 262 262 261 260 260 261 261 260 260 259 258 258 258 258 258 257 257 257 256 256 256 257
249 251 251 253 254 256 257 258 258 258 258 259 260 261 262 262 262 263 263 264 264 263 264 265 265 264 263 262 261 261 260 260 261 260 260 261 261 261 258 258 258 258 257 257 256 256 255 255 256
252 253 253 254 256 257 258 258 259 260 260 260 261 262 263 264 265 266 266 266 265 264 265 266 265 264 262 261 260 260 260 260 260 260 261 261 262 261 259 258 258 257 256 256 256 256 255 255 255
254 254 255 256 257 258 259 260 260 260 261 261 262 262 263 265 266 267 267 267 268 268 268 267 265 263 262 261 261 260 260 259 259 259 260 261 261 260 259 258 257 257 257 257 256 256 255 255 254
256 257 258 258 259 260 261 261 262 262 261 262 263 263 264 265 266 266 267 268 268 270 269 269 268 265 263 262 261 261 261 261 259 259 259 260 260 260 260 259 258 257 257 257 257 257 256 255 255
258 258 259 260 260 261 262 263 264 265 264 264 264 265 265 266 266 267 268 268 268 269 269 268 268 266 265 263 262 262 261 260 260 259 259 260 260 261 260 259 259 258 258 258 258 258 255 255 255
260 261 261 262 262 263 264 264 264 265 265 265 266 267 267 266 267 267 268 269 269 269 268 267 266 265 265 264 263 262 262 262 261 260 259 260 260 260 260 260 260 259 259 259 258 257 256 256 255
262 262 262 262 263 263 264 265 265 265 266 266 267 268 268 267 268 268 269 270 269 268 267 266 265 265 265 264 263 262 261 261 261 260 260 261 261 260 260 260 260 260 259 258 258 257 257 256 255
264 263 263 263 264 264 265 265 265 266 267 267 268 268 269 269 269 270 270 270 270 269 268 266 265 265 265 264 262 261 261 261 261 260 260 261 261 261 261 261 260 259 259 259 258 257 257 256 255
266 265 265 265 265 266 266 266 266 266 267 268 268 268 269 270 271 271 271 271 270 269 268 267 265 265 264 262 261 261 261 260 260 259 260 261 262 262 262 261 261 260 260 260 261 259 257 256 256
266 267 267 266 267 267 267 267 267 267 267 268 268 269 270 271 271 271 272 272 271 270 268 267 266 264 263 262 261 260 260 260 260 260 260 261 261 262 262 262 262 262 261 261 260 259 258 257 256
266 268 268 268 269 270 269 269 268 269 269 270 270 270 271 272 272 272 273 273 272 271 269 267 266 264 263 262 262 261 260 259 260 260 261 261 261 261 261 261 262 262 261 260 259 259 258 257 257
268 270 270 271 271 272 272 271 270 270 271 271 271 271 272 273 274 274 274 273 272 271 269 268 266 264 262 262 262 262 261 260 260 260 261 262 262 261 261 261 262 262 261 260 259 258 258 258 258
271 272 272 273 274 274 275 275 273 272 272 272 273 273 273 273 274 274 274 273 272 271 270 268 266 264 263 262 262 262 262 261 260 260 261 261 262 263 262 262 261 262 261 260 260 259 258 258 258
273 273 274 275 275 276 276 277 276 274 273 274 275 275 275 274 274 274 274 273 272 271 270 269 267 265 264 263 263 262 262 261 261 260 261 261 261 263 263 262 262 261 260 260 260 259 259 259 259
274 275 276 276 277 277 278 278 278 277 276 276 276 276 276 275 275 275 274 274 273 272 270 269 267 266 265 264 264 263 262 262 262 261 261 262 262 262 262 262 262 261 261 260 259 259 259 259 259
275 276 277 279 279 280 280 280 280 279 278 278 278 277 277 276 276 276 275 274 273 272 271 270 268 267 267 266 265 264 264 263 263 262 261 262 262 262 262 262 262 261 261 260 260 260 259 259 259
277 277 278 281 282 282 281 280 280 279 279 279 279 278 277 277 277 276 276 275 275 273 272 271 269 268 268 267 266 265 264 264 264 263 262 262 262 262 262 262 262 262 261 261 260 260 260 259 258
279 279 280 281 282 282 281 281 280 280 281 281 280 279 279 279 278 277 276 276 276 275 274 272 270 269 268 267 267 266 266 265 265 264 263 263 262 262 262 262 262 261 261 261 261 261 261 260 259
281 281 281 281 283 284 283 282 283 282 282 282 281 281 281 280 279 279 278 278 277 277 275 273 272 271 270 269 268 267 266 266 265 264 264 264 263 263 262 262 262 262 263 262 262 262 261 260 260
282 281 280 280 281 284 284 284 284 284 284 284 283 282 282 281 281 281 281 281 280 279 278 276 273 271 270 269 268 267 267 267 266 264 264 265 265 265 264 264 263 263 263 263 262 262 261 260 260
283 283 281 281 282 283 285 286 286 285 285 284 284 283 283 282 282 282 283 283 282 281 280 278 275 273 271 270 269 268 268 268 267 266 266 266 266 266 266 266 265 264 264 264 264 263 261 261 260
Height
5792 5794 5795 5797 5799 5800 5802 5804 5805 5807 5808 5809 5811 5812 5814 5815 5818 5821 5820 5820 5821 5822 5823 5824 5825 5826 5826 5827 5828 5828 5829 5830 5831 5831 5832 5832 5833 5834 5835 5836 5837 5837 5838 5839 5840 5841 5842 5843 5844
5789 5790 5792 5794 5795 5797 5799 5800 5802 5803 5805 5806 5807 5808 5810 5811 5813 5814 5815 5816 5817 5818 5819 5820 5821 5822 5823 5823 5824 5825 5825 5826 5827 5827 5828 5829 5830 5830 5831 5832 5833 5834 5835 5836 5837 5838 5839 5840 5841
5785 5787 5789 5790 5791 5794 5796 5797 5798 5799 5801 5802 5803 5804 5806 5808 5809 5810 5811 5812 5813 5814 5815 5816 5817 5818 5819 5819 5820 5820 5821 5822 5822 5823 5824 5825 5826 5826 5827 5828 5829 5830 5831 5832 5833 5834 5835 5836 5838
5782 5783 5785 5787 5788 5791 5792 5794 5794 5795 5797 5798 5799 5801 5802 5803 5804 5806 5806 5807 5808 5809 5810 5812 5813 5813 5814 5815 5815 5816 5817 5817 5818 5819 5819 5820 5821 5822 5823 5824 5825 5826 5827 5828 5829 5830 5831 5832 5834
5778 5780 5781 5783 5785 5787 5788 5790 5791 5791 5793 5794 5795 5797 5798 5799 5800 5801 5802 5803 5804 5805 5806 5807 5808 5808 5809 5809 5810 5811 5812 5812 5813 5813 5814 5815 5816 5817 5818 5819 5820 5821 5822 5823 5824 5825 5827 5828 5829
5775 5776 5778 5779 5782 5783 5784 5786 5787 5788 5789 5790 5791 5792 5793 5794 5795 5796 5797 5798 5799 5800 5801 5801 5802 5803 5803 5804 5805 5805 5806 5807 5807 5808 5808 5809 5810 5812 5813 5814 5815 5816 5817 5818 5819 5820 5821 5823 5824
5771 5772 5774 5776 5778 5779 5781 5782 5783 5783 5784 5786 5786 5788 5789 5789 5790 5791 5792 5793 5793 5794 5795 5795 5796 5797 5797 5798 5799 5799 5800 5800 5801 5802 5803 5803 5804 5805 5807 5808 5809 5810 5811 5812 5813 5815 5816 5817 5819
5766 5769 5769 5771 5773 5775 5776 5777 5778 5779 5780 5781 5782 5783 5784 5785 5785 5786 5786 5787 5788 5788 5789 5789 5790 5790 5791 5791 5792 5792 5793 5793 5794 5795 5796 5797 5798 5799 5800 5801 5802 5804 5805 5806 5807 5809 5810 5812 5813
5762 5765 5765 5767 5769 5770 5771 5772 5773 5774 5775 5776 5776 5778 5779 5779 5779 5780 5781 5781 5782 5782 5782 5783 5783 5784 5784 5784 5784 5785 5785 5786 5787 5787 5788 5789 5790 5792 5793 5794 5795 5797 5798 5799 5801 5802 5804 5805 5807
5757 5759 5762 5763 5764 5765 5766 5766 5767 5768 5769 5770 5771 5772 5772 5773 5773 5774 5774 5775 5775 5775 5775 5776 5776 5776 5776 5777 5777 5777 5778 5778 5779 5780 5781 5782 5783 5784 5785 5786 5788 5789 5790 5792 5793 5795 5796 5798 5800
5752 5754 5756 5757 5758 5759 5760 5760 5761 5762 5763 5764 5765 5766 5766 5766 5767 5767 5767 5768 5768 5768 5768 5768 5768 5768 5769 5769 5769 5770 5770 5771 5771 5772 5773 5774 5775 5776 5777 5778 5780 5781 5782 5784 5786 5787 5789 5791 5793
5747 5749 5750 5751 5752 5753 5753 5754 5755 5756 5757 5758 5758 5759 5759 5760 5760 5760 5760 5760 5761 5760 5760 5760 5760 5760 5761 5761 5761 5762 5762 5763 5763 5764 5765 5766 5767 5768 5769 5770 5772 5773 5774 5776 5778 5779 5781 5782 5785
5741 5743 5743 5744 5745 5746 5746 5747 5748 5749 5750 5750 5751 5751 5752 5753 5753 5753 5753 5753 5753 5753 5752 5752 5752 5752 5752 5753 5753 5753 5753 5754 5754 5755 5757 5758 5759 5760 5761 5762 5763 5765 5766 5768 5769 5771 5773 5774 5776
5735 5736 5737 5738 5738 5739 5740 5741 5742 5743 5743 5743 5743 5744 5744 5745 5745 5744 5744 5745 5744 5744 5744 5743 5743 5743 5743 5744 5744 5744 5745 5745 5746 5747 5748 5749 5750 5751 5752 5753 5754 5756 5757 5758 5760 5762 5763 5765 5767
5728 5729 5730 5731 5731 5732 5733 5734 5735 5735 5735 5735 5735 5735 5735 5736 5736 5736 5735 5735 5735 5735 5735 5734 5734 5734 5734 5734 5735 5735 5736 5736 5737 5738 5739 5740 5741 5742 5743 5744 5745 5746 5747 5749 5751 5752 5754 5756 5758
5721 5722 5723 5724 5724 5725 5726 5727 5728 5727 5727 5727 5727 5727 5727 5727 5726 5726 5726 5725 5725 5725 5725 5724 5724 5724 5724 5724 5724 5725 5726 5726 5727 5728 5729 5730 5731 5732 5733 5734 5735 5736 5737 5739 5740 5742 5744 5746 5748
5715 5715 5716 5717 5717 5717 5717 5719 5719 5718 5718 5718 5718 5718 5717 5717 5717 5716 5715 5715 5715 5714 5714 5714 5714 5714 5714 5714 5714 5714 5715 5716 5717 5718 5719 5719 5720 5722 5723 5724 5725 5726 5727 5728 5730 5732 5734 5736 5738
5708 5708 5708 5709 5709 5709 5709 5709 5710 5709 5709 5709 5709 5708 5708 5707 5707 5706 5705 5704 5703 5703 5703 5702 5702 5702 5702 5702 5703 5703 5704 5705 5706 5707 5708 5709 5710 5711 5712 5713 5715 5716 5716 5718 5719 5721 5723 5725 5727
5700 5700 5700 5700 5700 5700 5700 5701 5701 5700 5699 5699 5698 5698 5697 5697 5696 5695 5694 5693 5692 5691 5691 5691 5691 5690 5690 5690 5691 5692 5693 5694 5695 5696 5697 5698 5699 5700 5701 5703 5704 5705 5706 5707 5708 5709 5711 5713 5715
5692 5692 5692 5692 5691 5691 5691 5691 5691 5690 5689 5689 5688 5687 5687 5686 5685 5684 5683 5682 5680 5679 5679 5678 5678 5678 5678 5678 5679 5680 5681 5682 5682 5684 5685 5686 5688 5689 5690 5691 5692 5693 5694 5695 5697 5698 5699 5701 5703
5684 5684 5684 5683 5682 5681 5681 5681 5682 5681 5679 5679 5678 5677 5676 5675 5673 5672 5671 5670 5669 5667 5666 5666 5666 5666 5666 5666 5667 5668 5669 5670 5671 5672 5673 5674 5675 5677 5678 5679 5680 5681 5682 5683 5684 5686 5687 5689 5691
5676 5676 5675 5674 5673 5672 5672 5670 5672 5671 5669 5668 5668 5666 5665 5663 5662 5660 5659 5658 5657 5655 5654 5654 5653 5653 5653 5654 5654 5655 5656 5657 5658 5660 5661 5662 5662 5663 5665 5666 5667 5668 5669 5671 5672 5673 5675 5676 5678
5667 5667 5666 5665 5663 5662 5662 5659 5662 5660 5659 5658 5657 5656 5654 5652 5650 5649 5647 5646 5644 5643 5642 5641 5641 5641 5641 5641 5642 5643 5644 5645 5646 5647 5649 5650 5650 5650 5651 5653 5654 5655 5656 5658 5659 5660 5662 5663 5665
5658 5658 5657 5655 5653 5652 5653 5650 5650 5650 5650 5648 5646 5645 5643 5641 5639 5637 5636 5634 5633 5631 5630 5629 5629 5629 5628 5628 5629 5630 5631 5632 5633 5634 5635 5636 5637 5637 5638 5639 5641 5642 5643 5644 5645 5646 5648 5650 5651
5650 5649 5647 5644 5643 5643 5642 5639 5640 5640 5639 5637 5636 5634 5631 5630 5628 5626 5624 5623 5621 5620 5619 5618 5617 5616 5616 5616 5616 5617 5618 5618 5619 5620 5621 5623 5624 5624 5625 5626 5627 5628 5629 5630 5631 5632 5634 5635 5637
5641 5640 5639 5635 5633 5633 5631 5629 5631 5629 5628 5626 5625 5623 5620 5618 5616 5615 5613 5611 5609 5608 5607 5605 5605 5604 5603 5603 5603 5603 5604 5605 5606 5606 5608 5609 5610 5611 5611 5612 5613 5613 5614 5615 5616 5618 5619 5621 5622
5632 5631 5630 5626 5623 5622 5621 5621 5621 5619 5618 5616 5614 5612 5610 5608 5606 5604 5602 5600 5598 5596 5595 5593 5592 5591 5590 5590 5590 5590 5590 5591 5592 5593 5594 5595 5596 5597 5597 5598 5598 5599 5599 5600 5601 5603 5604 5606 5608
5624 5622 5620 5617 5613 5611 5611 5611 5611 5610 5608 5606 5604 5601 5599 5597 5595 5593 5591 5589 5586 5584 5583 5581 5580 5578 5578 5577 5577 5577 5577 5578 5578 5579 5580 5581 5581 5582 5583 5584 5584 5585 5585 5586 5587 5588 5589 5591 5593
5615 5613 5610 5608 5605 5603 5600 5604 5601 5599 5597 5595 5593 5590 5588 5586 5584 5582 5580 5577 5575 5573 5571 5569 5567 5566 5565 5564 5564 5564 5564 5565 5565 5566 5567 5567 5567 5568 5568 5569 5569 5570 5570 5571 5572 5572 5574 5576 5577
5606 5604 5602 5600 5597 5594 5591 5595 5591 5589 5586 5585 5582 5580 5578 5575 5573 5571 5569 5566 5564 5562 5559 5557 5555 5554 5553 5552 5552 5552 5552 5552 5552 5553 5553 5554 5554 5554 5554 5554 5554 5555 5555 5556 5556 5557 5558 5560 5562